User: anonymous
Location: Broad Creek
(39.7000°N, 76.2570°W)
Time: 21:47:29
(UTC-04:00)
Language:

ETS-7 - Orbit

View from above orbital plane
View from above orbital plane
View from above satellite
View from above satellite

Ground track
Ground track

The orbit data is extracted from the following two-line orbital elements,

1 25064U 97074B   14243.19012660  .00017983  00000-0  30329-3 0  2387
2 25064 034.9621 136.8428 0002855 017.4038 118.7195 15.50721611932813
Epoch (UTC): 31 August 2014 04:33:46
Eccentricity: 0.0002855
inclination: 34.9621°
perigee height: 412 km
apogee height: 416 km
right ascension of ascending node: 136.8428°
argument of perigee: 17.4038°
revolutions per day: 15.50721611
mean anomaly at epoch: 118.7195°
orbit number at epoch: 93281

The dashed part of the orbit path shows where the satellite is in the earth's shadow,  

DLR